Погода в Маячном

Россия / Астраханская область     46°01′48″N   47°43′00″E
темп.,
°C
ветер,
м/с
пор.,
м/с
влажн.,
%
обл.,
%
осадки,
мм/ч
давл.,
гПа
погр.,
м
1 августа, вс
вс101:00+24ююв336286 0.0 101137
04:00+24юв22669 0.0 101131
07:00+25юв22615 0.0 101198
10:00+31ю34425 0.0 1012838
13:00+32ю553928 0.3 1011962
16:00+34ю553478 0.3 10101172
19:00+31ю56381 0.0 1010331
22:00+26ю45572 0.0 101159
2 августа, пн
пн201:00+25ю22600 0.0 101112
04:00+25в115826 0.0 101111
07:00+26в23465 0.0 101262
10:00+33вюв34275 0.0 1012773
13:00+36ююв662187 0.0 10111816
16:00+36юв7818100 0.0 10101643
19:00+34юв5723100 0.0 1011448
22:00+27юв3451100 0.0 101149
3 августа, вт
вт301:00+25ююв346381 0.0 101137
04:00+26ююв115232 0.0 101111
07:00+28в11397 0.0 101218
10:00+33вюв23253 0.0 1012705
13:00+38ю551711 0.0 10102646
16:00+38ю77174 0.0 10092007
19:00+35ю56220 0.0 1009335
22:00+28ю33380 0.0 101019
4 августа, ср
ср401:00+27ююз33460 0.0 101015
04:00+26юз22520 0.0 101011
07:00+27ю23440 0.0 101158
10:00+34ююз33251 0.0 1011556
13:00+37ю66195 0.0 10101322
16:00+37ююв641911 0.0 10091337
19:00+33ююв562742 0.0 1009223
22:00+27зюз115623 0.0 101113
5 августа, чт
чт501:00+28з224580 0.0 101011
04:00+27ссз61151100 0.0 1011231
07:00+27с71353100 0.1 1012401
10:00+29сз5545100 0.2 1013589
13:00+32сз55362 0.0 10131382
16:00+33ссз66331 0.0 10121647
19:00+32с66305 0.0 10111344
22:00+28ссв51036100 0.0 1013137